TimeEDT,TemperatureF,Dew PointF,Humidity,Sea Level PressureIn,VisibilityMPH,Wind Direction,Wind SpeedMPH,Gust SpeedMPH,PrecipitationIn,Events,Conditions,WindDirDegrees,DateUTC
12:15 AM,67.6,64.9,91,30.23,10.0,Calm,Calm,-,N/A,,Clear,0,2013-08-21 04:15:00
12:35 AM,66.9,64.6,92,30.23,10.0,Calm,Calm,-,N/A,,Clear,0,2013-08-21 04:35:00
12:55 AM,66.2,63.9,92,30.23,7.0,Calm,Calm,-,N/A,,Clear,0,2013-08-21 04:55:00
1:15 AM,67.1,64.9,93,30.23,10.0,Calm,Calm,-,N/A,,Clear,0,2013-08-21 05:15:00
1:35 AM,67.1,64.9,93,30.23,7.0,Calm,Calm,-,N/A,,Clear,0,2013-08-21 05:35:00
1:55 AM,66.4,64.4,93,30.23,5.0,Calm,Calm,-,N/A,,Clear,0,2013-08-21 05:55:00
2:15 AM,66.7,64.9,94,30.23,7.0,Calm,Calm,-,N/A,,Clear,0,2013-08-21 06:15:00
2:35 AM,66.2,64.4,94,30.23,5.0,Calm,Calm,-,N/A,,Clear,0,2013-08-21 06:35:00
2:55 AM,64.8,62.8,93,30.23,2.5,Calm,Calm,-,N/A,,Clear,0,2013-08-21 06:55:00
3:15 AM,66.0,64.4,94,30.23,5.0,Calm,Calm,-,N/A,,Clear,0,2013-08-21 07:15:00
3:35 AM,64.8,63.0,94,30.23,4.0,Calm,Calm,-,N/A,,Clear,0,2013-08-21 07:35:00
3:55 AM,63.1,61.5,94,30.23,7.0,Calm,Calm,-,N/A,,Clear,0,2013-08-21 07:55:00
4:15 AM,63.1,61.5,94,30.22,0.8,Calm,Calm,-,N/A,,Overcast,0,2013-08-21 08:15:00
4:35 AM,64.2,62.6,94,30.22,5.0,Calm,Calm,-,N/A,,Mostly Cloudy,0,2013-08-21 08:35:00
4:55 AM,63.0,61.3,94,30.23,5.0,Calm,Calm,-,N/A,,Mostly Cloudy,0,2013-08-21 08:55:00
5:15 AM,63.1,61.7,95,30.23,0.2,Calm,Calm,-,N/A,Fog,Fog,0,2013-08-21 09:15:00
5:35 AM,63.1,61.7,95,30.22,5.0,Calm,Calm,-,N/A,,Overcast,0,2013-08-21 09:35:00
5:55 AM,62.8,61.5,96,30.22,5.0,Calm,Calm,-,N/A,,Overcast,0,2013-08-21 09:55:00
6:15 AM,61.9,60.4,95,30.23,4.0,Calm,Calm,-,N/A,,Overcast,0,2013-08-21 10:15:00
6:35 AM,62.2,60.8,95,30.23,3.0,Calm,Calm,-,N/A,,Overcast,0,2013-08-21 10:35:00
6:55 AM,62.8,61.3,95,30.24,0.2,Calm,Calm,-,N/A,Fog,Fog,0,2013-08-21 10:55:00
7:15 AM,63.1,61.7,95,30.25,0.2,Calm,Calm,-,N/A,Fog,Fog,0,2013-08-21 11:15:00
7:35 AM,64.6,63.1,95,30.25,2.5,Calm,Calm,-,N/A,,Overcast,0,2013-08-21 11:35:00
7:55 AM,64.9,63.7,96,30.26,4.0,Calm,Calm,-,N/A,,Overcast,0,2013-08-21 11:55:00
8:15 AM,66.2,64.8,95,30.26,2.5,Calm,Calm,-,N/A,,Overcast,0,2013-08-21 12:15:00
8:35 AM,66.2,64.8,95,30.26,0.2,Calm,Calm,-,N/A,Fog,Fog,0,2013-08-21 12:35:00
8:55 AM,66.9,65.5,95,30.27,0.5,Calm,Calm,-,N/A,Fog,Fog,0,2013-08-21 12:55:00
9:15 AM,67.8,66.4,95,30.27,1.2,Calm,Calm,-,N/A,,Overcast,0,2013-08-21 13:15:00
9:35 AM,68.4,67.1,96,30.27,5.0,Calm,Calm,-,N/A,,Overcast,0,2013-08-21 13:35:00
9:55 AM,69.4,68.0,95,30.26,7.0,Calm,Calm,-,N/A,,Overcast,0,2013-08-21 13:55:00
10:15 AM,70.7,67.8,91,30.26,7.0,Calm,Calm,-,N/A,,Overcast,0,2013-08-21 14:15:00
10:35 AM,71.2,67.3,87,30.27,10.0,Calm,Calm,-,N/A,,Mostly Cloudy,0,2013-08-21 14:35:00
10:55 AM,73.4,67.5,82,30.26,10.0,Calm,Calm,-,N/A,,Scattered Clouds,0,2013-08-21 14:55:00
11:15 AM,74.8,66.7,76,30.26,10.0,Calm,Calm,-,N/A,,Clear,0,2013-08-21 15:15:00
11:35 AM,76.5,67.5,74,30.26,10.0,SW,3.5,-,N/A,,Scattered Clouds,230,2013-08-21 15:35:00
11:55 AM,77.0,67.3,72,30.25,10.0,Calm,Calm,-,N/A,,Scattered Clouds,0,2013-08-21 15:55:00
12:15 PM,77.9,66.4,68,30.25,10.0,Calm,Calm,-,N/A,,Scattered Clouds,0,2013-08-21 16:15:00
12:35 PM,78.8,66.7,66,30.25,10.0,SW,4.6,-,N/A,,Clear,230,2013-08-21 16:35:00
12:55 PM,79.9,66.4,63,30.24,10.0,SSW,4.6,-,N/A,,Clear,210,2013-08-21 16:55:00
1:15 PM,81.1,65.7,59,30.23,10.0,SSW,5.8,-,N/A,,Clear,210,2013-08-21 17:15:00
1:35 PM,82.2,66.4,59,30.22,10.0,SSW,4.6,-,N/A,,Clear,210,2013-08-21 17:35:00
1:55 PM,82.4,66.4,58,30.21,10.0,SW,3.5,-,N/A,,Clear,220,2013-08-21 17:55:00
2:15 PM,83.1,65.7,55,30.20,10.0,Calm,Calm,-,N/A,,Clear,0,2013-08-21 18:15:00
2:35 PM,81.9,65.8,58,30.20,10.0,SSW,6.9,-,N/A,,Mostly Cloudy,210,2013-08-21 18:35:00
2:55 PM,83.8,65.8,55,30.19,10.0,South,9.2,-,N/A,,Scattered Clouds,170,2013-08-21 18:55:00
3:15 PM,83.8,64.6,52,30.18,10.0,South,4.6,-,N/A,,Clear,180,2013-08-21 19:15:00
3:35 PM,82.4,65.8,57,30.18,10.0,SSE,9.2,-,N/A,,Scattered Clouds,160,2013-08-21 19:35:00
3:55 PM,81.3,66.9,61,30.17,10.0,SSE,10.4,-,N/A,,Scattered Clouds,160,2013-08-21 19:55:00
4:15 PM,79.9,66.9,64,30.17,10.0,SSE,8.1,-,N/A,,Scattered Clouds,160,2013-08-21 20:15:00
4:35 PM,79.7,67.3,66,30.17,10.0,SSE,4.6,-,N/A,Thunderstorm,Scattered Clouds,160,2013-08-21 20:35:00
4:55 PM,79.7,67.6,66,30.17,10.0,South,8.1,-,N/A,,Scattered Clouds,170,2013-08-21 20:55:00
5:15 PM,79.2,67.6,68,30.17,10.0,South,6.9,-,N/A,,Clear,180,2013-08-21 21:15:00
5:35 PM,79.7,67.8,67,30.18,10.0,South,5.8,-,N/A,,Scattered Clouds,170,2013-08-21 21:35:00
5:55 PM,79.2,67.6,68,30.18,10.0,SSE,3.5,-,N/A,,Mostly Cloudy,150,2013-08-21 21:55:00
6:15 PM,78.3,68.0,71,30.18,10.0,Calm,Calm,-,N/A,Thunderstorm,Overcast,0,2013-08-21 22:15:00
6:35 PM,73.8,60.4,63,30.18,10.0,NW,15.0,19.6,N/A,,Overcast,320,2013-08-21 22:35:00
6:55 PM,70.5,61.0,72,30.19,10.0,North,11.5,18.4,N/A,Thunderstorm,Thunderstorm,350,2013-08-21 22:55:00
7:15 PM,69.3,61.9,77,30.19,5.0,East,3.5,-,0.02,Rain,Heavy Rain,90,2013-08-21 23:15:00
7:35 PM,66.6,63.0,88,30.20,10.0,East,6.9,-,0.03,Rain,Rain,100,2013-08-21 23:35:00
7:55 PM,66.2,63.1,90,30.20,10.0,Calm,Calm,-,0.03,,Mostly Cloudy,0,2013-08-21 23:55:00
8:15 PM,66.2,63.5,91,30.18,10.0,ENE,3.5,-,N/A,,Mostly Cloudy,60,2013-08-22 00:15:00
8:35 PM,66.2,63.5,91,30.17,10.0,ENE,3.5,-,N/A,,Scattered Clouds,60,2013-08-22 00:35:00
8:55 PM,65.8,63.5,92,30.18,10.0,Calm,Calm,-,N/A,,Clear,0,2013-08-22 00:55:00
9:15 PM,65.7,63.7,93,30.18,10.0,Calm,Calm,-,N/A,,Clear,0,2013-08-22 01:15:00
9:35 PM,65.7,63.7,93,30.18,10.0,Calm,Calm,-,N/A,,Clear,0,2013-08-22 01:35:00
9:55 PM,65.8,63.7,93,30.18,10.0,Calm,Calm,-,N/A,,Clear,0,2013-08-22 01:55:00
10:15 PM,65.7,63.5,93,30.18,10.0,Calm,Calm,-,N/A,,Clear,0,2013-08-22 02:15:00
10:35 PM,65.5,63.5,93,30.18,10.0,Calm,Calm,-,N/A,,Clear,0,2013-08-22 02:35:00
10:55 PM,65.3,63.5,94,30.18,10.0,Calm,Calm,-,N/A,,Clear,0,2013-08-22 02:55:00
11:15 PM,65.5,63.7,94,30.19,10.0,Calm,Calm,-,N/A,,Mostly Cloudy,0,2013-08-22 03:15:00
11:35 PM,65.7,63.9,94,30.18,10.0,Calm,Calm,-,N/A,,Overcast,0,2013-08-22 03:35:00
11:55 PM,65.7,63.9,94,30.18,10.0,Calm,Calm,-,N/A,,Overcast,0,2013-08-22 03:55:00